Regional Weather Roundup
Issued by NWS State College, PA

Home | Current Version | Previous Version | Text Only | Print | Product List | Glossary On
Versions: 1 2 3 4 5 6 7 8 9 10 11 12 13 14 15 16 17 18 19 20 21 22 23 24 25 26 27 28 29 30 31 32 33 34 35 36 37 38 39 40 41 42 43 44 45 46 47 48 49 50
000
ASUS41 KCTP 211610
RWRCTP

REGIONAL WEATHER ROUNDUP
NATIONAL WEATHER SERVICE STATE COLLEGE PA
1100 AM EST SAT JAN 21 2017

Note: "fair" indicates few or no clouds below 12,000 feet with no
significant weather and/or obstructions to visibility.

* = STATION THAT DOES NOT REPORT PRECIPITATION /E.G. RAIN...SNOW...ETC/
    THUNDER OR FOG.

PAZ002>004-007>009-013>016-020>023-029>032-211700-
WESTERN PENNSYLVANIA

CITY           SKY/WX    TMP DP  RH WIND       PRES   REMARKS
ERIE           PTSUNNY   57  49  74 S12       29.75R
MEADVILLE      PTSUNNY   53  48  83 SE5       29.76S
FRANKLIN*        N/A     50  48  93 SE7       29.78F
NEW CASTLE     FAIR      52  49  89 VRB6      29.78S
BEAVER COUNTY  SUNNY     52  50  93 S6        29.77F
BUTLER*        SUNNY     54  52  94 S7        29.80F
PITTSBURGH INT MOSUNNY   55  50  83 S6        29.77F
PITTSBURGH     SUNNY     56  47  71 S12       29.77F
INDIANA*       SUNNY     59  52  77 SE5       29.82F
LATROBE        MOSUNNY   55  55 100 CALM      29.80F
WASHINGTON CO* NOT AVBL
$$

PAZ004>006-010>012-017>019-024>028-033>037-041-042-045-046-049>053-211700-
CENTRAL PENNSYLVANIA

CITY           SKY/WX    TMP DP  RH WIND       PRES   REMARKS
BRADFORD       CLOUDY    49  49 100 VRB5      29.80F FOG
DUBOIS         SUNNY     51  48  89 S5        29.79F
CLEARFIELD     FOG       43  43 100 N5        29.83F VSB<1/4
JOHNSTOWN      SUNNY     56  49  77 S5        29.80F
ALTOONA        FOG       40  40 100 CALM      29.84F VSB<1/4
STATE COLLEGE  FOG       39  39 100 CALM      29.86F VSB 1/8
WILLIAMSPORT   FOG       41  40  96 E3        29.88F VSB 1
SELINSGROVE    CLOUDY    42  41  96 S6        29.90F FOG
FT INDIANTOWN  CLOUDY    41  41 100 CALM      29.89F
CAPITAL CITY   CLOUDY    44  41  89 NE3       29.90F FOG
HARRISBURG     FOG       42  42 100 CALM      29.89F VSB 1/4
YORK           CLOUDY    45  45 100 CALM      29.90F FOG
$$

PAZ038>040-043-044-047-048-054-055-060>062-067>071-211700-
EASTERN PENNSYLVANIA

CITY           SKY/WX    TMP DP  RH WIND       PRES   REMARKS
SCRANTON       CLOUDY    42  42 100 SW6       29.87R FOG
MOUNT POCONO   FOG       44  44 100 VRB6      29.85S VSB 1
ALLENTOWN      CLOUDY    44  42  93 SW7       29.90R FOG
QUAKERTOWN*    CLOUDY    43  43 100 W3        29.92R VSB 3/4
READING        CLOUDY    44  44 100 SW5       29.90S
LANCASTER      CLOUDY    44  44 100 NW5       29.90F FOG
COATESVILLE    FOG       43  43 100 CALM      29.92S VSB<1/4
POTTSTOWN      CLOUDY    43  42  97 VRB5      29.93S FOG
BLUE BELL      CLOUDY    43  43 100 CALM      29.91R
DOYLESTOWN     CLOUDY    45  44  97 W8        29.91R
WILLOW GROVE   NOT AVBL
NORTH PHILA    CLOUDY    46  44  93 W7        29.93R FOG
PHILADELPHIA   CLOUDY    45  44  97 W7        29.93R FOG
$$




USA.gov is the U.S. government's official web portal to all federal, state and local government web resources and services.